• MPC Preparation (Info)

  • MPEC 2016-C63 : 2016 CB30

    The following Minor Planet Electronic Circular may be linked-to from your own Web pages, but must not otherwise be redistributed electronically.

    A form allowing access to any MPEC is at the bottom of this page.


    Read MPEC 2016-C62 Read MPEC 2016-C64


    M.P.E.C. 2016-C63                                Issued 2016 Feb. 6, 16:34 UT
    
         The Minor Planet Electronic Circulars contain information on unusual
             minor planets and routine data on comets.  They are published
        on behalf of Division F of the International Astronomical Union by the
              Minor Planet Center, Smithsonian Astrophysical Observatory,
                              Cambridge, MA 02138, U.S.A.
    
                 Prepared using the Tamkin Foundation Computer Network
    
                                  MPC@CFA.HARVARD.EDU
                URL https://www.minorplanetcenter.net/    ISSN 1523-6714
    
                                       2016 CB30
    
    Observations:
         K16C30B* C2016 02 04.31620 08 58 56.974+30 40 05.48         21.1 wLEC063F51
         K16C30B  C2016 02 04.31750 08 58 56.984+30 40 05.90         21.3 wLEC063F51
         K16C30B  C2016 02 04.32828 08 58 57.139+30 40 08.14         21.2 wLEC063F51
         K16C30B  C2016 02 04.32957 08 58 57.162+30 40 08.31         21.1 wLEC063F51
         K16C30B  C2016 02 04.34040 08 58 57.301+30 40 10.62         21.0 wLEC063F51
         K16C30B  C2016 02 04.34169 08 58 57.324+30 40 11.08         21.0 wLEC063F51
         K16C30B  C2016 02 04.35385 08 58 57.462+30 40 13.38         21.0 wLEC063F51
         K16C30B  C2016 02 05.14513708 59 21.19 +30 41 37.6          21.3 VtEC063H01
         K16C30B  C2016 02 05.14901408 59 21.27 +30 41 38.3          21.5 VtEC063H01
         K16C30B  C2016 02 05.15872908 59 21.45 +30 41 40.3          21.5 VtEC063H01
         K16C30B  C2016 02 05.16863208 59 21.63 +30 41 42.2          21.4 VtEC063H01
         K16C30B  C2016 02 05.32302 08 59 24.07 +30 42 07.0          20.9 RoEC063926
         K16C30B  C2016 02 05.34683 08 59 24.33 +30 42 09.1          21.2 RoEC063926
         K16C30B  C2016 02 05.36516 08 59 24.63 +30 42 09.8          20.8 RoEC063926
         K16C30B  C2016 02 06.38385 08 59 55.80 +30 43 42.0          21.1 VqEC063I52
         K16C30B  C2016 02 06.40478 08 59 56.14 +30 43 43.2          21.5 VqEC063I52
         K16C30B  C2016 02 06.42721 08 59 56.66 +30 43 42.6          20.4 VqEC063I52
         K16C30B  C2016 02 06.44895 08 59 57.02 +30 43 43.4          21.2 VqEC063I52
    
    Observer details:
    926 Tenagra II Observatory.  Observers M. Schwartz, P. R. Holvorcem.  Measurer
        M. Schwartz.  0.81-m f/7 Ritchey-Chretien + CCD.
    F51 Pan-STARRS 1, Haleakala.  Observers B. Gibson, T. Goggia, N. Primak,
        A. Schultz, M. Willman.  Measurers K. Chambers, S. Chastel, L. Denneau,
        H. Flewelling, M. Huber, E. Lilly, E. Magnier, R. Wainscoat, C. Waters,
        R. Weryk.  1.8-m Ritchey-Chretien + CCD.
    H01 Magdalena Ridge Observatory, Socorro.  Observers W. H. Ryan, E. V. Ryan.
        Measurer W. H. Ryan.  2.4-m f/8.9 reflector + CCD.
    I52 Steward Observatory, Mt. Lemmon Station.  Observer A. R. Gibbs.  Measurers
        E. J. Christensen, D. C. Fuls, A. R. Gibbs, A. D. Grauer, J. A. Johnson,
        R. A. Kowalski, S. M. Larson, G. J. Leonard, R. G. Matheny, R. L. Seaman,
        F. C. Shelly.  1.0-m reflector + CCD.
    
    Orbital elements:
    2016 CB30                                                Earth MOID = 0.0908 AU
    Epoch 2016 Jan. 13.0 TT = JDT 2457400.5                 MPC
    M 337.38473              (2000.0)            P               Q
    n   0.33596837     Peri.  171.71067     -0.99936758     -0.03511824
    a   2.0492917      Node     6.28487     +0.02899614     -0.89567782
    e   0.4697212      Incl.    2.92254     +0.02058320     -0.44331472
    P   2.93           H   23.3           G   0.15           U   8
    Residuals in seconds of arc
    160204 F51  0.1+  0.1-    160204 F51  0.2-  0.0     160205 926  0.4-  0.3+
    160204 F51  0.0   0.1+    160205 H01  0.0   0.0     160205 926  0.3+  0.3-
    160204 F51  0.0   0.0     160205 H01  0.1+  0.1-    160206 I52  0.3-  0.6-
    160204 F51  0.1+  0.1-    160205 H01  0.1-  0.0     160206 I52  0.5-  0.3+
    160204 F51  0.0   0.1-    160205 H01  0.1-  0.1-    160206 I52  0.9+  0.4-
    160204 F51  0.0   0.1+    160205 926  0.2+  0.4+    160206 I52  0.1-  0.6+
    
    Ephemeris:
    2016 CB30                a,e,i = 2.05, 0.47, 3                   q = 1.0867
    Date    TT    R. A. (2000) Decl.     Delta      r     Elong.  Phase     V
    2016 01 07    08 46 17.6 +28 17 16   0.3832  1.3451   157.3    16.4    22.7
    ...
    2016 01 22    08 53 38.6 +29 42 47   0.2831  1.2612   166.6    10.4    21.7
    ...
    2016 01 30    08 56 39.9 +30 22 36   0.2405  1.2208   167.4    10.2    21.3
    ...
    2016 02 05    08 59 14.7 +30 41 31   0.2129  1.1930   165.3    12.1    21.1
    2016 02 06    08 59 45.0 +30 43 14   0.2087  1.1886   164.8    12.6    21.0
    2016 02 07    09 00 17.2 +30 44 28   0.2045  1.1843   164.3    13.1    21.0
    ...
    2016 02 13    09 04 24.3 +30 39 10   0.1813  1.1600   160.8    16.2    20.8
    ...
    2016 02 21    09 13 36.9 +29 46 42   0.1547  1.1322   156.4    20.4    20.5
    ...
    2016 03 07    09 49 16.8 +24 18 58   0.1163  1.0970   152.7    24.5    20.0
    
    A. U. Tomatic                (C) Copyright 2016 MPC           M.P.E.C. 2016-C63
    

    Read MPEC 2016-C62 Read MPEC 2016-C64


    MPEC number:

    Enter an MPEC number in one of the following forms:

    • 1997-B01 (the full form)
    • J97B01 (the packed version of the full form)
    • B01 (the abbreviated form)